Location: Newark
(34.9500°N, 139.9667°E)
Time: 10:07:18
(UTC+00:00)

Transit 4A - Pass Details

Date: 10 December 2019
Orbit: 871 x 973 km, 66.8° (Epoch: 18 January)

Event Time Altitude Azimuth Distance (km) Brightness Sun altitude
Rises 07:56:35 0° 223° (SW) 3,620 12.4 -6.0°
Reaches altitude 10° 07:59:16 10° 229° (SW) 2,664 11.8 -6.5°
Maximum altitude 08:05:11 45° 301° (WNW) 1,242 8.9 -7.6°
Drops below altitude 10° 08:10:59 10° 14° (NNE) 2,609 9.9 -8.7°
Sets 08:13:36 0° 21° (NNE) 3,538 10.5 -9.2°
